Flag for Japan Weather past 2 weeks in Kumamoto, Japan

Now
83 °F

Warm.


Feels Like: 91 °F
Forecast: 78 / 89 °F
Wind: 5 mph from Southwest

Location: Kumamoto

Current Time: Jul 26, 2014 at 2:02:35 AM

Latest Report: Jul 26, 2014 at 1:00 AM


Visibility: N/A

Pressure: 29.92 "Hg

Humidity: 79%

Dew point: 76 °F

Location of KumamotoLocation

Historic Weather in Kumamoto — Graph

°F

Kumamoto temperature yesterday

Maximum temperature yesterday: 94 °F (at 2:00 PM)
Minimum temperature yesterday: 80 °F (at 5:00 AM)
Average temperature yesterday: 87 °F

Past Weeks' High & Low Weather Summary

 TemperatureHumidityPressure
High94 °F (Jul 25, 2:00 PM)97% (Jul 15, 3:00 AM)29.98 "Hg (Jul 15, 3:00 AM)
Low71 °F (Jul 12, 7:00 PM)37% (Jul 12, 12:00 PM)29.56 "Hg (Jul 11, 12:00 AM)
Average81 °F77%29.84 "Hg
* Reported Midnight between Jul 10 and Jul 11 — Midnight between Jul 25 and Jul 26, Kumamoto, Weather by CustomWeather, © 2014

Note: Actual official high and low records may vary slightly from our data, if they occured in-between our weather recording intervals... More about our weather records

Advertising

Kumamoto weather history for previous 24 hours

 ConditionsComfort  
Time TempWeatherWind HumidityBarometerVisibility
12:00 AM
Jul 26
83 °FWarm.7 mph80%29.92 "HgN/A
11:00 PM
Jul 25
83 °FWarm.5 mph79%29.93 "HgN/A
10:00 PM84 °FWarm.6 mph79%29.92 "HgN/A
9:00 PM86 °FPassing clouds.6 mph74%29.91 "Hg12 mi
8:00 PM86 °FWarm.7 mph72%29.89 "HgN/A
7:00 PM88 °FHot.7 mph69%29.87 "HgN/A
6:00 PM91 °FPartly sunny.12 mph64%29.85 "Hg19 mi
5:00 PM91 °FHot.10 mph63%29.85 "HgN/A
4:00 PM92 °FHot.9 mph59%29.85 "HgN/A
3:00 PM93 °FScattered clouds.13 mph58%29.85 "Hg19 mi
2:00 PM94 °FExtremely hot.10 mph57%29.84 "HgN/A
1:00 PM92 °FHot.8 mph58%29.85 "HgN/A
12:00 PM92 °FPartly sunny.9 mph57%29.86 "Hg19 mi
11:00 AM91 °FHot.9 mph59%29.86 "HgN/A
10:00 AM89 °FHot.8 mph65%29.86 "HgN/A
9:00 AM87 °FPassing clouds.5 mph68%29.86 "Hg12 mi
8:00 AM85 °FWarm.2 mph74%29.86 "HgN/A
7:00 AM83 °FWarm.3 mph81%29.86 "HgN/A
6:00 AM80 °FPassing clouds.1 mph86%29.85 "Hg16 mi
5:00 AM80 °FWarm.1 mph87%29.84 "HgN/A
4:00 AM82 °FWarm.5 mph86%29.83 "HgN/A
3:00 AM82 °FPassing clouds.3 mph87%29.83 "Hg12 mi
2:00 AM83 °FWarm.5 mph84%29.83 "HgN/A
Weather by CustomWeather, © 2014

See weather overviewHow to use our weather pages